Regional Weather Roundup
Issued by NWS

Home | Current Version | Previous Version | Graphics & Text | Print | Product List | Glossary On
Versions: 1 2 3 4 5 6 7 8 9 10 11 12 13 14 15 16 17 18 19 20 21 22 23 24 25 26 27 28 29 30 31 32 33 34 35 36 37 38 39 40 41 42 43 44 45 46 47 48 49 50
000
ASUS44 KMEG 260500
RWRTN
TENNESSEE HOURLY STATE WEATHER ROUNDUP
NATIONAL WEATHER SERVICE MEMPHIS TN
1200 AM CDT SUN APR 26 2015

TNZ002-004-019-021-049-052-054-088>092-260600-
WEST TENNESSEE

CITY           SKY/WX    TMP DP  RH WIND       PRES   REMARKS
MEMPHIS INTL   CLEAR     71  56  58 W5        29.62R
NWS MEMPHIS      N/A     72 N/A N/A MISG        N/A
JACKSON        PTCLDY    68  59  73 NW7       29.61R
DYERSBURG      PTCLDY    64  46  52 NE5       29.64R
UNION CITY     CLOUDY    59  32  36 CALM      29.62S
PARIS          CLOUDY    57  55  94 CALM      29.63S
LEXINGTON      MOCLDY    66  55  68 N13       29.62R
SAVANNAH       CLEAR     66  32  28 SW6       29.61S
$$

TNZ008-025-027-028-033-062-065-066-260600-
NORTH MIDDLE TENNESSEE

CITY           SKY/WX    TMP DP  RH WIND       PRES   REMARKS
NASHVILLE      LGT RAIN  62  60  93 SW3       29.62R
CLARKSVILLE    CLOUDY    60  59  96 SW5       29.61S
COOKEVILLE     MOCLDY    59  57  94 CALM      29.61R
CROSSVILLE     CLOUDY    60  55  83 W6        29.64R
$$

TNZ061-075-076-078-094-096-097-260600-
SOUTH MIDDLE TENNESSEE

CITY           SKY/WX    TMP DP  RH WIND       PRES   REMARKS
FAYETTEVILLE   CLEAR     64  64 100 SW7       29.63S
TULLAHOMA      PTCLDY    66  64  94 SW7       29.63R
WINCHESTER     PTCLDY    70  66  88 W9        29.62R
MCMINNVILLE    CLOUDY    63  61  94 N10       29.62R
COLUMBIA       CLOUDY    70  32  24 N9        29.62R
SHELBYVILLE    PTCLDY    70  66  88 W5        29.62R
$$

TNZ017-018-042-046-047-260600-
NORTHEAST TENNESSEE

CITY           SKY/WX    TMP DP  RH WIND       PRES   REMARKS
TRI CITIES     TSTM      59  58  96 S8        29.54R
ELIZABETHTON   PTCLDY    54  52  94 CALM      29.56R
$$

TNZ012-013-036-069-073-074-260600-
CENTRAL EAST TENNESSEE

CITY           SKY/WX    TMP DP  RH WIND       PRES   REMARKS
KNOXVILLE      LGT RAIN  62  59  90 W14G28    29.57R
OAK RIDGE      LGT RAIN  62  60  93 SW5       29.58S
GATLINBURG     CLOUDY    59  57  94 SW10      29.58R
$$

TNZ083-085-099-260600-
SOUTHEAST TENNESSEE

CITY           SKY/WX    TMP DP  RH WIND       PRES   REMARKS
CHATTANOOGA    MOCLDY    72  65  78 SW13      29.60S
$$

SKY/WX REPORTED AS FAIR MEANS FEW OR NO CLOUDS BELOW
12 THOUSAND FEET.




USA.gov is the U.S. government's official web portal to all federal, state and local government web resources and services.